• In Uzbekistan
  • List of Countries
  • For 7 days
  • Water Temperature
  • Satellite Maps
  • Weather Map
  • Weather Widgets
  • user-avatar
    Login

    Hourly Weather Sagaleipie

    Today, 24 January, Thursday

    Time Temperature Precipitation Wind Pressure Humidity
    00:00 +21°C° 0 mm 0 mps 723 mmHg 48%
    01:00 +21°C° 0 mm 0 mps 723 mmHg 60%
    02:00 +21°C° 0 mm 0 mps 723 mmHg 73%
    03:00 +21°C° 0 mm 0 mps 723 mmHg 79%
    04:00 +22°C° 0 mm 0 mps 723 mmHg 86%
    05:00 +24°C° 0 mm 1 mps 723 mmHg 92%
    06:00 +24°C° 0.1 mm 1 mps 723 mmHg 90%
    07:00 +25°C° 0.1 mm 1 mps 724 mmHg 88%
    08:00 +25°C° 0.1 mm 1 mps 724 mmHg 86%
    09:00 +27°C° 0 mm 1 mps 724 mmHg 76%
    10:00 +29°C° 0 mm 1 mps 724 mmHg 66%
    11:00 +31°C° 0 mm 1 mps 724 mmHg 55%
    12:00 +33°C° 0 mm 1 mps 723 mmHg 46%
    13:00 +35°C° 0 mm 1 mps 722 mmHg 37%
    14:00 +36°C° 0 mm 1 mps 722 mmHg 29%
    15:00 +35°C° 0 mm 1 mps 721 mmHg 31%
    16:00 +34°C° 0 mm 1 mps 721 mmHg 34%
    17:00 +33°C° 0 mm 1 mps 721 mmHg 37%
    18:00 +31°C° 0 mm 1 mps 722 mmHg 42%
    19:00 +29°C° 0 mm 1 mps 722 mmHg 48%
    20:00 +27°C° 0 mm 1 mps 723 mmHg 54%
    21:00 +26°C° 0 mm 1 mps 723 mmHg 60%
    22:00 +25°C° 0 mm 1 mps 723 mmHg 67%
    23:00 +24°C° 0 mm 1 mps 723 mmHg 74%

    Tomorrow, 25 January, Friday

    Time Temperature Precipitation Wind Pressure Humidity
    00:00 +24°C° 0 mm 1 mps 723 mmHg 80%
    01:00 +24°C° 0 mm 1 mps 723 mmHg 87%
    02:00 +25°C° 0 mm 1 mps 723 mmHg 93%
    03:00 +25°C° 0.1 mm 1 mps 723 mmHg 93%
    04:00 +25°C° 0.1 mm 1 mps 723 mmHg 93%
    05:00 +25°C° 0.1 mm 1 mps 723 mmHg 93%
    06:00 +26°C° 0 mm 1 mps 723 mmHg 88%
    07:00 +26°C° 0 mm 1 mps 724 mmHg 83%
    08:00 +27°C° 0 mm 1 mps 724 mmHg 78%
    09:00 +29°C° 0 mm 1 mps 724 mmHg 68%
    10:00 +32°C° 0 mm 1 mps 724 mmHg 58%
    11:00 +34°C° 0 mm 1 mps 724 mmHg 48%
    12:00 +34°C° 0 mm 1 mps 723 mmHg 44%
    13:00 +35°C° 0 mm 1 mps 722 mmHg 39%
    14:00 +36°C° 0 mm 1 mps 721 mmHg 35%
    15:00 +35°C° 0 mm 1 mps 721 mmHg 37%
    16:00 +34°C° 0 mm 1 mps 721 mmHg 39%
    17:00 +33°C° 0 mm 1 mps 721 mmHg 41%
    18:00 +31°C° 0 mm 1 mps 722 mmHg 46%
    19:00 +28°C° 0 mm 0 mps 722 mmHg 51%
    20:00 +26°C° 0 mm 0 mps 723 mmHg 56%
    21:00 +25°C° 0.1 mm 0 mps 723 mmHg 65%
    22:00 +24°C° 0.1 mm 0 mps 723 mmHg 75%
    23:00 +25°C° 0.1 mm 1 mps 723 mmHg 85%

    Day after tomorrow, 26 January, Saturday

    Time Temperature Precipitation Wind Pressure Humidity
    00:00 +22°C° 0 mm 0 mps 723 mmHg 89%
    01:00 +22°C° 0 mm 0 mps 723 mmHg 94%
    02:00 +21°C° 0 mm 0 mps 722 mmHg 98%
    03:00 +22°C° 0 mm 0 mps 722 mmHg 97%
    04:00 +22°C° 0 mm 0 mps 723 mmHg 95%
    05:00 +24°C° 0 mm 1 mps 723 mmHg 94%
    06:00 +25°C° 0 mm 1 mps 723 mmHg 90%
    07:00 +26°C° 0 mm 1 mps 724 mmHg 85%
    08:00 +26°C° 0 mm 1 mps 725 mmHg 80%
    09:00 +29°C° 0 mm 1 mps 725 mmHg 66%
    10:00 +32°C° 0 mm 1 mps 725 mmHg 52%
    11:00 +36°C° 0 mm 1 mps 725 mmHg 37%
    12:00 +37°C° 0 mm 1 mps 724 mmHg 32%
    13:00 +36°C° 0 mm 0 mps 723 mmHg 27%
    14:00 +38°C° 0 mm 0 mps 722 mmHg 21%
    15:00 +36°C° 0 mm 0 mps 722 mmHg 24%
    16:00 +34°C° 0 mm 0 mps 721 mmHg 26%
    17:00 +32°C° 0 mm 0 mps 721 mmHg 28%
    18:00 +30°C° 0 mm 0 mps 722 mmHg 31%
    19:00 +28°C° 0 mm 0 mps 722 mmHg 34%
    20:00 +28°C° 0 mm 1 mps 723 mmHg 36%
    21:00 +26°C° 0 mm 1 mps 723 mmHg 45%
    22:00 +25°C° 0 mm 1 mps 724 mmHg 54%
    23:00 +24°C° 0 mm 1 mps 724 mmHg 62%

    27 January, Sunday

    Time Temperature Precipitation Wind Pressure Humidity
    00:00 +24°C° 0 mm 1 mps 723 mmHg 72%
    01:00 +25°C° 0 mm 1 mps 723 mmHg 82%
    02:00 +25°C° 0 mm 1 mps 723 mmHg 92%
    03:00 +25°C° 0 mm 1 mps 723 mmHg 92%
    04:00 +25°C° 0 mm 1 mps 723 mmHg 91%
    05:00 +25°C° 0 mm 1 mps 724 mmHg 90%
    06:00 +26°C° 0 mm 1 mps 724 mmHg 84%
    07:00 +27°C° 0 mm 1 mps 725 mmHg 79%
    08:00 +28°C° 0 mm 2 mps 725 mmHg 73%
    09:00 +30°C° 0 mm 1 mps 725 mmHg 60%
    10:00 +33°C° 0 mm 1 mps 725 mmHg 48%
    11:00 +35°C° 0 mm 1 mps 724 mmHg 35%
    12:00 +37°C° 0 mm 1 mps 723 mmHg 30%
    13:00 +39°C° 0 mm 1 mps 722 mmHg 24%
    14:00 +40°C° 0 mm 1 mps 721 mmHg 19%
    15:00 +37°C° 0 mm 1 mps 721 mmHg 21%
    16:00 +36°C° 0 mm 1 mps 721 mmHg 23%
    17:00 +32°C° 0 mm 0 mps 721 mmHg 24%
    18:00 +30°C° 0 mm 0 mps 721 mmHg 26%
    19:00 +28°C° 0 mm 0 mps 722 mmHg 28%
    20:00 +27°C° 0 mm 1 mps 723 mmHg 30%
    21:00 +26°C° 0 mm 1 mps 723 mmHg 41%
    22:00 +25°C° 0 mm 1 mps 723 mmHg 53%
    23:00 +24°C° 0 mm 1 mps 723 mmHg 64%

    28 January, Monday

    Time Temperature Precipitation Wind Pressure Humidity
    00:00 +24°C° 0.1 mm 1 mps 723 mmHg 73%
    01:00 +25°C° 0.1 mm 1 mps 723 mmHg 81%
    02:00 +25°C° 0.1 mm 1 mps 722 mmHg 89%
    03:00 +25°C° 0.1 mm 1 mps 723 mmHg 90%
    04:00 +25°C° 0.1 mm 1 mps 723 mmHg 90%
    05:00 +23°C° 0.1 mm 0 mps 723 mmHg 90%
    06:00 +25°C° 0.1 mm 1 mps 723 mmHg 86%
    07:00 +26°C° 0.1 mm 1 mps 724 mmHg 82%
    08:00 +27°C° 0.1 mm 1 mps 724 mmHg 78%
    09:00 +30°C° 0 mm 1 mps 724 mmHg 64%
    10:00 +32°C° 0 mm 1 mps 724 mmHg 50%
    11:00 +35°C° 0 mm 1 mps 724 mmHg 36%
    12:00 +37°C° 0 mm 1 mps 723 mmHg 32%
    13:00 +36°C° 0 mm 0 mps 722 mmHg 27%
    14:00 +38°C° 0 mm 0 mps 721 mmHg 23%
    15:00 +36°C° 0 mm 0 mps 721 mmHg 26%
    16:00 +34°C° 0 mm 0 mps 721 mmHg 29%
    17:00 +32°C° 0 mm 0 mps 721 mmHg 32%
    18:00 +32°C° 0 mm 1 mps 721 mmHg 38%
    19:00 +30°C° 0 mm 1 mps 722 mmHg 45%
    20:00 +28°C° 0 mm 1 mps 723 mmHg 52%
    21:00 +27°C° 0.1 mm 1 mps 723 mmHg 65%
    22:00 +26°C° 0.1 mm 1 mps 723 mmHg 78%
    23:00 +26°C° 0.1 mm 2 mps 723 mmHg 90%

    29 January, Tuesday

    Time Temperature Precipitation Wind Pressure Humidity
    00:00 +25°C° 0.1 mm 1 mps 723 mmHg 90%
    01:00 +25°C° 0.1 mm 1 mps 723 mmHg 90%
    02:00 +25°C° 0.1 mm 1 mps 722 mmHg 90%
    03:00 +25°C° 0.1 mm 1 mps 723 mmHg 90%
    04:00 +25°C° 0.1 mm 1 mps 723 mmHg 91%
    05:00 +23°C° 0.1 mm 0 mps 723 mmHg 92%
    06:00 +26°C° 0 mm 1 mps 723 mmHg 86%
    07:00 +27°C° 0 mm 1 mps 724 mmHg 81%
    08:00 +28°C° 0 mm 1 mps 724 mmHg 75%
    09:00 +30°C° 0 mm 1 mps 724 mmHg 61%
    10:00 +33°C° 0 mm 1 mps 724 mmHg 48%
    11:00 +36°C° 0 mm 1 mps 724 mmHg 34%
    12:00 +37°C° 0 mm 1 mps 723 mmHg 30%
    13:00 +39°C° 0 mm 1 mps 722 mmHg 26%
    14:00 +40°C° 0 mm 1 mps 721 mmHg 22%
    15:00 +39°C° 0 mm 1 mps 721 mmHg 25%
    16:00 +34°C° 0 mm 0 mps 721 mmHg 27%
    17:00 +33°C° 0 mm 0 mps 721 mmHg 30%
    18:00 +32°C° 0 mm 1 mps 722 mmHg 37%
    19:00 +30°C° 0 mm 1 mps 722 mmHg 44%
    20:00 +28°C° 0 mm 1 mps 723 mmHg 51%
    21:00 +27°C° 0.2 mm 1 mps 723 mmHg 65%
    22:00 +25°C° 0.2 mm 1 mps 723 mmHg 80%
    23:00 +24°C° 0.2 mm 1 mps 723 mmHg 94%
    Show more